Location: Berg
(47.2344°N, 9.5296°E)
Time: 04:32:46
(UTC+00:00)

PSLV R/B - Visible Passes

Search period start: 13 May 2021 00:00
Search period end: 23 May 2021 00:00
Orbit: 568 x 597 km, 98.2° (Epoch: 12 May)

Date Brightness Start Highest point End Pass type
(mag) Time Alt. Az. Time Alt. Az. Time Alt. Az.
18 May 6.8 19:29:52 10° NNW 19:33:15 24° WNW 19:36:35 10° WSW visible
19 May 7.0 19:35:43 10° NNW 19:38:54 21° WNW 19:42:04 10° WSW visible
20 May 7.1 19:41:35 10° NNW 19:44:33 19° WNW 19:47:30 10° WSW visible
21 May 7.1 19:47:27 10° NNW 19:50:12 17° WNW 19:52:55 10° WSW visible
22 May 7.2 19:53:23 10° NNW 19:55:50 15° WNW 19:58:16 10° W visible
